STARLINK-32446, 61262

Orbit data source: Space-Track

STARLINK-32446, 61262 is a payload satellite owned by SpaceX/Seattle (US) in LEO that was launched on Wed, 25 Sep 2024 UTC via an FALCON 9 launch vehicle from the Air Force Western Test Range (AFWTR). Payloads include a variety of satellites, spacecraft, and rockets equipped with specific instruments for various scientific and technological missions. These include communications satellites like Starlink; space stations such as the ISS; scientific satellites like the Hubble; Earth observation satellites from companies like Planet Labs, Umbra, and HawkEye 360; GPS; miniature CubeSats for education and research; and military/defense satellites.

Loading next visibility...
STARLINK-32446 details
Identifier
61262, 2024-175V
Orbit
LEO
Last TLE update22 hours ago
Origin
Flag of USSpaceX/Seattle (US)
ManufacturerSpaceX/Seattle
MissionOperational spacecraft
Bus & MotorSTARLINK V2M, Unknown motor
Mass730 kg wet, ~700 kg dry
Launch date (UTC)
2024-09-25 (3 months ago)
Launch vehicle
FALCON 9
Launch site
Air Force Western Test Range (AFWTR)
Object type
Payload
Rocket body
Debris
Shape & HBRUnknown
Radar Cross SectionLarge (>1 m²)

Expand to show TLE details & history

TLE from 22 hours ago
0 STARLINK-32446
1 61262U 24175V   24355.56162611  .00003010  00000-0  85237-4 0  9996
2 61262  53.1607  99.9532 0001336  89.4616 270.6542 15.39607164 14615
Epoch: 2024-12-20T13:28Z
Definitive object data (Epoch: 2024-12-20T13:28:44.495Z)
Latitude-0.00004°
Longitude168.14241°
Altitude448.163 km
Speed7.645 km/s
True Right ascension06h 39m 48s
True Declination0° 00' 00"
Sunlit
Object was in full shadow at TLE epoch
Visualization TLE readout
Latitude18.83989°
Longitude-30.99978°
Altitude447.234 km
Speed7.647 km/s
Apparent Right ascension19h 43m 09s
Apparent Declination-12° 28' 15"
Sunlit
Object is in daylight
Visualization observer readout
Local Sidereal Time10:59:41
Azimuth71.69° E
Elevation-38.946°
Doppler factor1
Orbital elements
Apogee altitude448.439 km
Perigee altitude446.616 km
Semi-major axis6,825.664 km
Eccentricity0.0001336
Inclination53.1607°
RAAN99.9532°
Arg. of periapsis89.4616°
True anomaly270.63889°
Mean anomaly270.6542°
Eccentric anomaly270.64655°
Mean motion3.8488 °/min
BSTAR0.000085237
Orbital period93.54 mins
Loading maneuver chart data...
Loading historical data...
Loading historical data...
Loading historical data...
Loading historical data...
Loading historical data...
Loading historical data...
Loading historical data...

STARLINK-32446 Visibility forecast

Observer location: undefined°, undefined

Span
Click to sort rows by Start time (UTC) header in descending order
Start Az.
Max El. time (UTC)
Max El. Az.
Max El.
End time (UTC)
End Az.
5 mins2024-12-21 16:27:57.825Z316.632° NNW2024-12-21 16:29:57.825Z353.094° N41.848°2024-12-21 16:32:57.825Z121.645° SE
5 mins2024-12-22 09:16:57.825Z214.248° SW2024-12-22 09:18:57.825Z171.372° S40.219°2024-12-22 09:21:57.825Z58.337° ENE
|